This demonstration page uses our WeatherBlox Daily Observations layout. Learn more.

Left ArrowRight Arrow

39.51506, -84.39828

Hourly Observations for June 21, 2015

Temp ( °F °C ) Dew Point ( °F °C ) Humidity (%) Winds ( mph kmh ) Pressure ( in mb ) Visibility ( mi km ) Precip ( " mm )
12:55 am 00:55 Clear 74 23.6 70 21.2 86 86 SW 6 9 29.88 1012 10 16.0934 N/A
1:35 am 01:35 Clear 74 23.6 70 21.2 86 86 SW 6 9 29.88 1012 10 16.0934 N/A
1:55 am 01:55 Clear 74 23.4 70 21 86 86 WSW 3 6 29.88 1012 10 16.0934 N/A
2:15 am 02:15 Clear 74 23.6 70 21.3 87 87 SW 6 9 29.88 1012 10 16.0934 N/A
2:35 am 02:35 Clear 74 23.6 70 21.2 86 86 SW 7 11 29.88 1012 10 16.0934 N/A
2:55 am 02:55 Clear 74 23.6 70 21.3 87 87 SW 9 15 29.88 1012 10 16.0934 N/A
3:15 am 03:15 Clear 74 23.6 70 21.3 87 87 SW 8 13 29.91 1013 7 11.26538 N/A
3:35 am 03:35 Clear 74 23.6 71 21.5 88 88 N N/A 29.91 1013 7 11.26538 N/A
3:55 am 03:55 Partly Cloudy 73 22.5 69 20.4 88 88 N 5 7 29.94 1014 7 11.26538 N/A
4:15 am 04:15 Mostly Cloudy 74 23.6 71 21.5 88 88 W 3 6 29.94 1014 7 11.26538 N/A
4:35 am 04:35 Mostly Cloudy 74 23.6 70 21.3 87 87 N N/A 29.91 1013 10 16.0934 N/A
4:55 am 04:55 Mostly Cloudy with Rain 74 23.6 70 21.3 87 87 NNW 5 7 29.88 1012 5 8.0467 N/A
5:15 am 05:15 Mostly Cloudy with Light Rain 74 23.6 70 21.2 86 86 N N/A 29.88 1012 10 16.0934 N/A
5:35 am 05:35 Partly Cloudy 71 21.4 67 19.4 88 88 N N/A 29.85 1011 10 16.0934 N/A
5:55 am 05:55 Clear 71 21.7 68 19.8 89 89 S 7 11 29.83 1010 10 16.0934 N/A
6:15 am 06:15 Sunny 72 22.3 68 20 87 87 SSW 6 9 29.83 1010 10 16.0934 N/A
6:35 am 06:35 Sunny 71 21.4 66 19.1 87 87 SW 6 9 29.85 1011 10 16.0934 N/A
6:55 am 06:55 Sunny 69 20.8 66 18.7 88 88 SW 7 11 29.85 1011 10 16.0934 N/A
7:15 am 07:15 Sunny 70 21.2 66 19 87 87 WSW 6 9 29.88 1012 10 16.0934 N/A
7:35 am 07:35 Sunny 73 23 69 20.4 85 85 WSW 5 7 29.88 1012 10 16.0934 N/A
7:55 am 07:55 Partly Cloudy 74 23.5 69 20.5 83 83 W 3 6 29.91 1013 10 16.0934 N/A
8:15 am 08:15 Sunny 74 23.1 69 20.3 84 84 SW 6 9 29.91 1013 10 16.0934 N/A
8:35 am 08:35 Sunny 74 23.6 69 20.5 83 83 SW 6 9 29.91 1013 10 16.0934 N/A
8:55 am 08:55 Sunny 74 23.6 68 20.1 81 81 SW 7 11 29.91 1013 10 16.0934 N/A
9:15 am 09:15 Sunny 76 24.2 68 20.2 78 78 SW 10 17 29.91 1013 10 16.0934 N/A
9:35 am 09:35 Sunny 74 23.6 66 18.8 75 75 SW 9 15 29.91 1013 10 16.0934 N/A
9:55 am 09:55 Sunny 77 25.1 69 20.6 76 76 SW 7 11 29.91 1013 10 16.0934 N/A
10:15 am 10:15 Sunny 79 26.2 70 21 73 73 WSW 12 19 29.91 1013 10 16.0934 N/A
10:35 am 10:35 Sunny 80 26.5 68 19.9 67 67 WSW 15 24 29.94 1014 10 16.0934 N/A
10:55 am 10:55 Partly Cloudy 80 26.5 68 20.1 68 68 W 7 11 29.91 1013 10 16.0934 N/A
11:15 am 11:15 Sunny 80 26.9 68 20.2 67 67 WSW 10 17 29.91 1013 10 16.0934 N/A
11:35 am 11:35 Sunny 81 27.3 67 19.5 62 62 WSW 10 17 29.91 1013 10 16.0934 N/A
11:55 am 11:55 Sunny 82 28 67 19.5 60 60 W 12 19 29.88 1012 10 16.0934 N/A
12:15 pm 12:15 Sunny 83 28.2 66 19.1 58 58 W 14 22 29.91 1013 10 16.0934 N/A
12:35 pm 12:35 Sunny 82 28 64 17.9 54 54 W 13 20 29.91 1013 10 16.0934 N/A
12:55 pm 12:55 Sunny 84 28.7 65 18.6 54 54 WNW 12 19 29.91 1013 10 16.0934 N/A
1:15 pm 13:15 Sunny 84 29.1 65 18.5 53 53 WNW 8 13 29.91 1013 10 16.0934 N/A
1:35 pm 13:35 Sunny 85 29.3 65 18.3 52 52 W 13 20 29.91 1013 10 16.0934 N/A
2:15 pm 14:15 Sunny 87 30.7 67 19.2 50 50 W 13 20 29.91 1013 10 16.0934 N/A
2:55 pm 14:55 Mostly Cloudy 84 28.8 63 17.4 50 50 W 13 20 29.91 1013 10 16.0934 N/A
3:15 pm 15:15 Cloudy 83 28.3 64 17.9 53 53 W 9 15 29.91 1013 10 16.0934 N/A
3:35 pm 15:35 Cloudy 82 28 64 18 55 55 W 9 15 29.91 1013 10 16.0934 N/A
3:55 pm 15:55 Cloudy 82 28 66 18.9 58 58 W 6 9 29.94 1014 10 16.0934 N/A
4:15 pm 16:15 Partly Cloudy 85 29.4 67 19.2 54 54 WNW 9 15 29.94 1014 10 16.0934 N/A
4:35 pm 16:35 Partly Cloudy 83 28.6 67 19.2 57 57 W 9 15 29.94 1014 10 16.0934 N/A
4:55 pm 16:55 Partly Cloudy 84 28.7 66 18.8 55 55 W 13 20 29.94 1014 10 16.0934 N/A
5:15 pm 17:15 Partly Cloudy 85 29.5 68 19.8 56 56 WNW 9 15 29.91 1013 10 16.0934 N/A
5:35 pm 17:35 Partly Cloudy 83 28.1 66 18.7 57 57 W 9 15 29.94 1014 10 16.0934 N/A
5:55 pm 17:55 Partly Cloudy 84 29 66 18.9 54 54 W 10 17 29.91 1013 10 16.0934 N/A
6:15 pm 18:15 Sunny 83 28.1 66 18.9 57 57 W 12 19 29.91 1013 10 16.0934 N/A
6:35 pm 18:35 Partly Cloudy 83 28.1 66 19 58 58 W 9 15 29.91 1013 10 16.0934 N/A
6:55 pm 18:55 Sunny 82 28 67 19.6 60 60 W 9 15 29.94 1014 10 16.0934 N/A
7:15 pm 19:15 Partly Cloudy 81 27.2 67 19.5 63 63 W 6 9 29.97 1015 10 16.0934 N/A
7:35 pm 19:35 Sunny 80 26.8 68 19.8 66 66 W 6 9 29.97 1015 10 16.0934 N/A
7:55 pm 19:55 Sunny 80 26.5 69 20.4 69 69 WSW 6 9 29.97 1015 10 16.0934 N/A
8:15 pm 20:15 Sunny 80 26.5 70 20.9 71 71 WSW 6 9 30 1016 10 16.0934 N/A
8:35 pm 20:35 Sunny 79 26.2 70 20.9 73 73 SW 5 7 30 1016 10 16.0934 N/A
8:55 pm 20:55 Sunny 77 25.1 69 20.8 77 77 WSW 7 11 30 1016 10 16.0934 N/A
9:15 pm 21:15 Clear 77 25.1 69 20.7 77 77 WSW 5 7 30 1016 10 16.0934 N/A
9:35 pm 21:35 Clear 76 24.4 69 20.5 79 79 SSW 3 6 29.97 1015 10 16.0934 N/A
9:55 pm 21:55 Clear 77 25.1 70 21 78 78 N N/A 29.97 1015 10 16.0934 N/A
10:15 pm 22:15 Clear 74 23.6 70 21 85 85 N N/A 29.97 1015 10 16.0934 N/A
10:35 pm 22:35 Clear 74 23.6 71 21.5 88 88 N N/A 29.97 1015 10 16.0934 N/A
10:55 pm 22:55 Clear 72 22.4 69 20.4 89 89 N N/A 30 1016 10 16.0934 N/A
11:15 pm 23:15 Clear 71 21.9 68 20 89 89 N N/A 30 1016 10 16.0934 N/A
11:35 pm 23:35 Clear 70 21.2 67 19.4 90 90 N N/A 30.03 1017 10 16.0934 N/A
11:55 pm 23:55 Clear 71 21.6 67 19.7 89 89 N N/A 30.03 1017 10 16.0934 N/A

Powered by AerisWeather